Regional Weather Roundup
Issued by NWS

Home | Current Version | Previous Version | Text Only | Print | Product List | Glossary On
Versions: 1 2 3 4 5 6 7 8 9 10 11 12 13 14 15 16 17 18 19 20 21 22 23 24 25 26 27 28 29 30 31 32 33 34 35 36 37 38 39 40 41 42 43 44 45 46 47 48 49 50
000
ASUS43 KMPX 200501
RWRMN
WEATHER ROUNDUP FOR MINNESOTA
NATIONAL WEATHER SERVICE TWIN CITIES/CHANHASSEN MN
1100 PM CST THU JAN 19 2017


NOTE: "FAIR" INDICATES FEW OR NO CLOUDS BELOW 12,000 FEET WITH NO
SIGNIFICANT WEATHER AND/OR OBSTRUCTIONS TO VISIBILITY. N/A MEANS
CURRENT SKY AND/OR WEATHER CONDITIONS ARE NOT AVAILABLE.

MNZ060>063-068>070-200600-
   Twin Cities Metro

CITY           SKY/WX    TMP DP  RH WIND       PRES   REMARKS
TWIN CITIES    CLOUDY    36  32  85 SE5       29.68F
ST PAUL        CLOUDY    36  34  92 SE5       29.70S
CRYSTAL        CLOUDY    37  30  75 SE3       29.67F
BLAINE         CLOUDY    37  36  93 E3        29.67F
LAKEVILLE      CLOUDY    32  32 100 E5        29.67F FOG     WCI  27
EDEN PRAIRIE   CLOUDY    37  31  78 E3        29.67S
SOUTH ST PAUL  CLOUDY    36  34  92 CALM      29.69F
LAKE ELMO      CLOUDY    36  34  93 CALM      29.70S
$$
MNZ001>005-007-008-013>017-022>024-027-028-200600-
   Northwest Minnesota

CITY           SKY/WX    TMP DP  RH WIND       PRES   REMARKS
BEMIDJI        FOG       35  35 100 S8        29.60F VSB 3/4 WCI  29
HALLOCK        CLOUDY    34  34 100 S17       29.54S FOG     WCI  23
ROSEAU         CLOUDY    37  32  81 SW9       29.56S HAZE
WARROAD        FOG       27  21  80 CALM      29.56S VSB<1/4
THIEF RVR FALL FOG       34  33  96 S12       29.58S VSB 1/4 WCI  25
CROOKSTON      CLOUDY    34  34 100 S21G28    29.58S FOG     WCI  22
FOSSTON        CLOUDY    34  34 100 S14       29.59S FOG     WCI  24
DETROIT LAKES  FOG       34  34 100 S10       29.61S VSB 1   WCI  26
MOORHEAD       CLOUDY    34  34 100 SE10      29.59F FOG     WCI  26
PARK RAPIDS    FOG       34  32  92 S10       29.61F VSB 1/4 WCI  26
MAHNOMEN       CLOUDY    34  33  98 S9        29.59S FOG     WCI  26
$$
MNZ006-009>011-018-025>026-200600-
   North Central Minnesota

CITY           SKY/WX    TMP DP  RH WIND       PRES   REMARKS
BAUDETTE       CLOUDY    36  34  92 S8        29.57S FOG
FLAG ISLAND    FOG       23  21  93 S3        29.55F VSB<1/4
INTL FALLS     MOCLDY    37  34  89 S6        29.61S FOG
WASKISH        CLOUDY    37  37 100 S9        29.59F FOG
BIG FORK       CLEAR     36  32  87 CALM      29.63F FOG
LONGVILLE      CLEAR     32  30  93 CALM      29.62F FOG
GRAND RAPIDS   CLEAR     33  31  92 SE5       29.66F FOG     WCI  29
CRANE LAKE     FOG       28  27  93 CALM      29.67S VSB 1
ORR            CLEAR     34  30  86 CALM      29.62F
COOK           CLEAR     36  34  93 S5        29.65F
WALKER         CLOUDY    35  34  95 SW6       29.61F FOG     WCI  30
$$
MNZ012-019>021-037-200600-
   Northeast Minnesota

CITY           SKY/WX    TMP DP  RH WIND       PRES   REMARKS
DULUTH         CLOUDY    35  32  88 SE7       29.68F WCI  29
ELY            CLEAR     36  32  87 S6        29.66F
HIBBING        FOG       22  22 100 CALM      29.65F VSB 1/4
EVELETH        CLEAR     24  23  96 CALM      29.68S FOG
DULUTH HARBOR  CLOUDY    32  30  93 CALM      29.72F FOG
TWO HARBORS    PTCLDY    32  27  80 N3        29.68F HAZE
SILVER BAY     PTCLDY    25  25 100 CALM      29.69F FOG
GRAND MARAIS     N/A     30  28  92 N3        29.72F
G MARAIS ARPRT FOG       27  23  86 N3        29.69F VSB 1/4
$$
MNZ029>031-032-039>041-046>048-054>057-064-200600-
   West Central Minnesota

CITY           SKY/WX    TMP DP  RH WIND       PRES   REMARKS
FERGUS FALLS   CLOUDY    36  36 100 SE13      29.64F FOG
WHEATON        CLOUDY    39  39 100 SE13      29.60F FOG
MORRIS         FOG       34  34 100 SE6       29.60F VSB<1/4 WCI  29
ALEXANDRIA     CLOUDY    34  34 100 S7        29.61F FOG     WCI  28
ELBOW LAKE     LGT SNOW  34  34 100 E12       29.60F VSB 3/4 WCI  25
WADENA         FOG       34  34 100 S3        29.61F VSB 1/2
GLENWOOD       CLOUDY    34  34 100 SE8       29.61F FOG     WCI  27
APPLETON       CLOUDY    36  34  93 SE8       29.61F FOG
BENSON         CLOUDY    37  34  87 S7          N/A
ORTONVILLE     CLOUDY    34  32  93 SE7       29.59F FOG     WCI  28
MADISON        CLOUDY    37  37 100 SE13      29.60F FOG
WILLMAR        CLOUDY    36  36 100 SE8       29.64F FOG
$$
MNZ033>034-036-042>043-049>051-058-059-200600-
   Central Minnesota

CITY           SKY/WX    TMP DP  RH WIND       PRES   REMARKS
ST CLOUD       CLOUDY    35  33  92 E6        29.66F FOG     WCI  30
SAUK CENTRE    CLOUDY    33  32  97 SE9       29.63F FOG     WCI  25
PAYNESVILLE    CLOUDY    34  34 100 E3        29.65S
AITKIN         MOCLDY    37  30  75 SE9       29.64S
PINE RIVER     MOCLDY    30  30 100 SE3       29.67F FOG
BRAINERD       MOCLDY    36  33  89 S10       29.64F FOG
STAPLES        CLOUDY    34  34 100 CALM      29.62F FOG
LONG PRAIRIE   CLOUDY    32  32 100 E9        29.62F FOG     WCI  24
LITTLE FALLS   CLOUDY    34  32  93 SE6       29.65F WCI  29
LITCHFIELD     CLOUDY    36  34  93 E5        29.65F
BUFFALO        CLOUDY    35  32  90 E5        29.68F WCI  30
MAPLE LAKE     CLOUDY    36  34  93 MISG      29.67F FOG
HUTCHINSON     CLOUDY    35  35  99 E3        29.67S FOG
$$
MNZ037-044-045-052-053-200600-
   East Central Minnesota

CITY           SKY/WX    TMP DP  RH WIND       PRES   REMARKS
PRINCETON      CLOUDY    36  34  93 CALM      29.67F FOG
MORA           DRIZZLE   34  30  86 CALM      29.70F
CAMBRIDGE      CLOUDY    37  30  75 CALM      29.66F
RUSH CITY      CLOUDY    36  32  87 CALM      29.68F
MOOSE LAKE     MOCLDY    36  32  87 CALM      29.67F
HINCKLEY       CLOUDY    36  32  87 CALM      29.68F
CLOQUET        CLOUDY    34  30  86 SE5       29.68F FOG     WCI  30
MCGREGOR       CLOUDY    36  32  87 S9        29.66F
$$
MNZ071>073-080-081-089-090-097-098-200600-
   Southwest Minnesota

CITY           SKY/WX    TMP DP  RH WIND       PRES   REMARKS
MONTEVIDEO     FOG       34  34 100 S7        29.63S VSB 1/2 WCI  28
GRANITE FALLS  CLOUDY    36  35  98 E5        29.64S FOG
CANBY          CLOUDY    35  35  99 CALM      29.60F FOG
MARSHALL       CLOUDY    36  34  93 SE7       29.61F FOG
REDWOOD FALLS  CLOUDY    34  32  92 SE9       29.63F FOG     WCI  27
OLIVIA         CLOUDY    34  32  93 SE8       29.63F WCI  27
PIPESTONE      FOG       36  36 100 S7        29.59S VSB 1/2
WINDOM         FOG       36  34  93 SE6       29.62S VSB 3/4
WORTHINGTON    FOG       35  35 100 S13       29.60F VSB 3/4 WCI  26
JACKSON        FOG       32  32 100 SE5       29.62F VSB 1/4 WCI  27
TRACY          CLOUDY    36  36  99 S9        29.60F FOG
SLAYTON        FOG       33  33 100 SE9       29.61S VSB 1/2 WCI  26
$$
MNZ065>067-074>077-082>085-091>093-200600-
   South Central Minnesota

CITY           SKY/WX    TMP DP  RH WIND       PRES   REMARKS
MANKATO        MIX PCPN  34  33  96 SE6       29.66F VSB 3/4 WCI  29
NEW ULM        CLOUDY    34  34 100 SE6       29.64F FOG     WCI  29
ST JAMES       CLOUDY    34  34 100 SE3       29.65F FOG
FAIRMONT       FOG       34  33  96 SE7       29.64F VSB 1/2 WCI  28
GLENCOE        CLOUDY    35  35 100 CALM      29.66R FOG
FARIBAULT        N/A     36  34  93 E3        29.68S FOG
OWATONNA       CLOUDY   N/A N/A N/A CALM      29.66F FOG
WASECA         FOG       34  32  93 SE8       29.67S VSB 3/4 WCI  27
ALBERT LEA     DRZL/FOG  36  36 100 SE8       29.65F VSB 1/2
$$
MNZ078>079-086>088-094>096-200600-
   Southeast Minnesota

CITY           SKY/WX    TMP DP  RH WIND       PRES   REMARKS
ROCHESTER      LGT RAIN  33  33 100 SE8       29.68F FOG     WCI  26
RED WING       DRIZZLE   37  34  87 SE8       29.70S
STANTON        CLOUDY    37  33  87 SE5       29.67F
DODGE CENTER   MIX PCPN  34  34 100 CALM      29.67S
WINONA         DRIZZLE   36  34  93 SE6       29.73S
AUSTIN         DRIZZLE   34  34 100 SE6       29.67S WCI  29
PRESTON        LGT RAIN  33  32  96 SE6       29.69F VSB 1   WCI  28
$$
ABBREVIATIONS USED IN REMARKS
   TC - TEMPERATURES IN CELSIUS
  WCI - WIND CHILL INDEX
   HX - HEAT INDEX
  VSB - VISIBILITY
$$




USA.gov is the U.S. government's official web portal to all federal, state and local government web resources and services.